Chillicothe, MO

12:41 PM CST on December 08, 2016 (GMT -0600)
Chillicothe

Weather History for KCDJ - February, 2013

Change the Weather History Date:

Sunday, February 24, 2013

  Actual Average (KIRK) Record (KIRK)
Temperature  
Mean Temperature 24 °F -  
Max Temperature 39 °F 40 °F 77 °F (1930)
Min Temperature 8 °F 22 °F -1 °F (1967)
Degree Days  
Heating Degree Days 42    
Moisture  
Dew Point 17 °F    
Average Humidity 67    
Maximum Humidity 88    
Minimum Humidity 48    
Precipitation  
Precipitation 0.00 in - - ()
Sea Level Pressure  
Sea Level Pressure 30.09 in    
Wind  
Wind Speed 3 mph (East)    
Max Wind Speed 7 mph    
Max Gust Speed -    
Averages and records for this station are not official NWS values.
T = Trace of Precipitation, MM = Missing Value Source: NWS Daily Summary

Daily Weather History Graph

Daily Weather History Graph

Search for Another Location

Airport or City:

Trip Planner

Search our weather history database for the weather conditions in past years. The results will help you decide how hot, cold, wet, or windy it might be!

Date:

Astronomy

Feb. 24, 2013 Rise Set
Actual Time 6:54 AM CST 6:01 PM CST
Civil Twilight 6:27 AM CST 6:28 PM CST
Nautical Twilight 5:55 AM CST 6:59 PM CST
Astronomical Twilight 5:24 AM CST 7:31 PM CST
Moon 5:12 PM CST (2/24) 5:51 AM CST (2/24)
Length of Visible Light 12h 01m
Length of Day
11h 06m
Waxing Gibbous, 99% of the Moon is Illuminated
Feb 24
Waxing Gibbous
Feb 25
Full
Mar 4
Last Quarter
Mar 11
New
Mar 19
First Quarter

Hourly Weather History & Observations

Time (CST) Temp. Windchill Dew Point Humidity Pressure Visibility Wind Dir Wind Speed Gust Speed Precip Events Conditions
12:52 AM 19.0 °F 13.9 °F 12.9 °F 77% 30.06 in - South 3.5 mph - N/A   Unknown
1:52 AM 18.0 °F 11.1 °F 12.0 °F 78% 30.07 in - SSW 4.6 mph - N/A   Unknown
2:52 AM 15.1 °F - 10.9 °F 84% 30.06 in - Calm Calm - N/A   Unknown
3:52 AM 12.0 °F - 9.0 °F 88% 30.07 in - Calm Calm - N/A   Unknown
4:52 AM 12.0 °F - 8.1 °F 84% 30.08 in - Calm Calm - N/A   Unknown
5:52 AM 10.9 °F - 8.1 °F 88% 30.09 in - Calm Calm - N/A   Unknown
6:52 AM 8.1 °F - 5.0 °F 87% 30.11 in - Calm Calm - N/A   Unknown
7:52 AM 15.1 °F - 12.0 °F 88% 30.11 in - Calm Calm - N/A   Unknown
8:52 AM 21.0 °F 14.6 °F 16.0 °F 81% 30.12 in - ESE 4.6 mph - N/A   Unknown
9:52 AM 28.0 °F 24.2 °F 19.0 °F 69% 30.13 in - East 3.5 mph - N/A   Unknown
10:52 AM 30.9 °F 27.5 °F 19.0 °F 61% 30.14 in - East 3.5 mph - N/A   Unknown
11:52 AM 35.1 °F 30.1 °F 19.9 °F 54% 30.13 in - East 5.8 mph - N/A   Unknown
12:52 PM 37.0 °F 31.6 °F 19.9 °F 50% 30.11 in - ESE 6.9 mph - N/A   Unknown
1:52 PM 37.9 °F 34.4 °F 19.9 °F 48% 30.09 in - ESE 4.6 mph - N/A   Unknown
2:52 PM 39.0 °F 34.0 °F 21.0 °F 49% 30.06 in - ESE 6.9 mph - N/A   Unknown
3:52 PM 39.9 °F 35.1 °F 21.9 °F 49% 30.06 in - SE 6.9 mph - N/A   Unknown
4:52 PM 39.9 °F 36.7 °F 21.9 °F 49% 30.04 in - East 4.6 mph - N/A   Unknown
5:52 PM 37.9 °F - 23.0 °F 55% 30.05 in - Calm Calm - N/A   Unknown
6:52 PM 36.0 °F 32.1 °F 21.9 °F 57% 30.07 in - ENE 4.6 mph - N/A   Unknown
7:52 PM 35.1 °F 31.0 °F 21.9 °F 59% 30.08 in - NNE 4.6 mph - N/A   Unknown
8:52 PM 34.0 °F 31.0 °F 21.9 °F 61% 30.08 in - NE 3.5 mph - N/A   Unknown
9:52 PM 33.1 °F 27.7 °F 21.0 °F 61% 30.07 in - NNE 5.8 mph - N/A   Unknown
10:52 PM 32.0 °F 27.5 °F 21.9 °F 66% 30.09 in - NNE 4.6 mph - N/A   Unknown
11:52 PM 32.0 °F 27.5 °F 21.9 °F 66% 30.08 in - NE 4.6 mph - N/A   Unknown